Weather History for St. George, UT

Change the Weather History Date:

Monday, April 14, 2014

  Actual Average Record
Temperature  
Mean Temperature 60 °F -  
Max Temperature 71 °F 76 °F 94 °F (1936)
Min Temperature 48 °F 44 °F 30 °F (1933)
Degree Days  
Heating Degree Days 6    
Growing Degree Days 10 (Base 50)    
Moisture  
Dew Point 16 °F    
Average Humidity 19    
Maximum Humidity 32    
Minimum Humidity 11    
Precipitation  
Precipitation 0.00 in - - ()
Sea Level Pressure  
Sea Level Pressure 30.19 in    
Wind  
Wind Speed 12 mph (NNE)    
Max Wind Speed 23 mph    
Max Gust Speed 29 mph    
Visibility 10 miles    
Events      
Averages and records for this station are not official NWS values.
T = Trace of Precipitation, MM = Missing Value Source: NWS Daily Summary

Daily Weather History Graph

Daily Weather History Graph

Search for Another Location

Airport:

Trip Planner

Search our weather history database for the weather conditions in past years. The results will help you decide how hot, cold, wet, or windy it might be!

Date:

Astronomy

Apr. 14, 2014 Rise Set
Actual Time 7:01 AM MDT 8:08 PM MDT
Civil Twilight 6:34 AM MDT 8:35 PM MDT
Nautical Twilight 6:02 AM MDT 9:07 PM MDT
Astronomical Twilight 5:29 AM MDT 9:40 PM MDT
Moon 7:51 PM MDT (4/14) 6:34 AM MDT (4/14)
Length of Visible Light 14h 00m
Length of Day
13h 07m
Full, 100% of the Moon is Illuminated
Apr 14
Full
Apr 15
Full
Apr 22
Last Quarter
Apr 29
New
May 6
First Quarter

Hourly Weather History & Observations

Time (MDT) Temp. Dew Point Humidity Pressure Visibility Wind Dir Wind Speed Gust Speed Precip Events Conditions
12:15 AM 57.2 °F 21.2 °F 25% 30.14 in 10.0 mi NNE 20.7 mph 28.8 mph N/A   Clear
12:35 AM 57.2 °F 21.2 °F 25% 30.15 in 10.0 mi NE 17.3 mph - N/A   Clear
12:55 AM 55.4 °F 21.2 °F 26% 30.16 in 10.0 mi NE 13.8 mph 18.4 mph N/A   Clear
1:15 AM 55.4 °F 21.2 °F 26% 30.17 in 10.0 mi NNE 17.3 mph 23.0 mph N/A   Clear
1:35 AM 55.4 °F 21.2 °F 26% 30.17 in 10.0 mi NNE 12.7 mph - N/A   Clear
1:55 AM 55.4 °F 21.2 °F 26% 30.17 in 10.0 mi NNE 11.5 mph - N/A   Clear
2:15 AM 55.4 °F 19.4 °F 25% 30.17 in 10.0 mi NNE 10.4 mph 19.6 mph N/A   Clear
2:35 AM 55.4 °F 19.4 °F 25% 30.17 in 10.0 mi NNE 11.5 mph - N/A   Clear
2:55 AM 55.4 °F 19.4 °F 25% 30.18 in 10.0 mi NE 13.8 mph 21.9 mph N/A   Clear
3:15 AM 55.4 °F 19.4 °F 25% 30.18 in 10.0 mi NNE 5.8 mph 17.3 mph N/A   Clear
3:35 AM 55.4 °F 19.4 °F 25% 30.18 in 10.0 mi NE 10.4 mph 21.9 mph N/A   Clear
3:55 AM 55.4 °F 19.4 °F 25% 30.18 in 10.0 mi NE 17.3 mph 23.0 mph N/A   Clear
4:15 AM 55.4 °F 17.6 °F 23% 30.19 in 10.0 mi NNE 15.0 mph - N/A   Clear
4:35 AM 55.4 °F 17.6 °F 23% 30.20 in 10.0 mi NE 23.0 mph 26.5 mph N/A   Clear
4:55 AM 53.6 °F 17.6 °F 24% 30.20 in 10.0 mi NE 20.7 mph 26.5 mph N/A   Clear
5:15 AM 53.6 °F 17.6 °F 24% 30.20 in 10.0 mi NE 23.0 mph 28.8 mph N/A   Clear
5:35 AM 53.6 °F 17.6 °F 24% 30.20 in 10.0 mi NE 19.6 mph 26.5 mph N/A   Clear
5:55 AM 53.6 °F 17.6 °F 24% 30.21 in 10.0 mi NE 20.7 mph 26.5 mph N/A   Clear
6:15 AM 53.6 °F 15.8 °F 22% 30.21 in 10.0 mi NE 19.6 mph 26.5 mph N/A   Clear
6:35 AM 51.8 °F 17.6 °F 26% 30.23 in 10.0 mi NNW 4.6 mph - N/A   Clear
6:55 AM 50.0 °F 17.6 °F 28% 30.23 in 10.0 mi North 11.5 mph 17.3 mph N/A   Clear
7:15 AM 48.2 °F 19.4 °F 32% 30.24 in 10.0 mi NW 4.6 mph - N/A   Clear
7:35 AM 50.0 °F 17.6 °F 28% 30.25 in 10.0 mi North 8.1 mph - N/A   Clear
7:55 AM 51.8 °F 17.6 °F 26% 30.26 in 10.0 mi NE 12.7 mph - N/A   Clear
8:15 AM 53.6 °F 17.6 °F 24% 30.26 in 10.0 mi NNE 11.5 mph - N/A   Clear
8:35 AM 53.6 °F 17.6 °F 24% 30.27 in 10.0 mi North 9.2 mph - N/A   Clear
8:55 AM 55.4 °F 17.6 °F 23% 30.27 in 10.0 mi NE 11.5 mph - N/A   Clear
9:15 AM 57.2 °F 17.6 °F 21% 30.27 in 10.0 mi NNE 20.7 mph 26.5 mph N/A   Clear
9:35 AM 57.2 °F 15.8 °F 20% 30.28 in 10.0 mi NE 13.8 mph 20.7 mph N/A   Clear
9:55 AM 59.0 °F 15.8 °F 19% 30.28 in 10.0 mi ENE 16.1 mph - N/A   Clear
10:15 AM 59.0 °F 17.6 °F 20% 30.28 in 10.0 mi ENE 10.4 mph 18.4 mph N/A   Clear
10:35 AM 60.8 °F 15.8 °F 17% 30.28 in 10.0 mi East 11.5 mph - N/A   Clear
10:55 AM 60.8 °F 15.8 °F 17% 30.29 in 10.0 mi East 9.2 mph - N/A   Clear
11:15 AM 60.8 °F 15.8 °F 17% 30.29 in 10.0 mi SE 10.4 mph - N/A   Clear
11:35 AM 60.8 °F 15.8 °F 17% 30.28 in 10.0 mi ESE 6.9 mph - N/A   Clear
11:55 AM 62.6 °F 17.6 °F 18% 30.28 in 10.0 mi ESE 9.2 mph - N/A   Clear
12:15 PM 62.6 °F 15.8 °F 16% 30.27 in 10.0 mi NE 4.6 mph - N/A   Clear
12:35 PM 62.6 °F 15.8 °F 16% 30.27 in 10.0 mi Calm Calm - N/A   Clear
12:55 PM 64.4 °F 15.8 °F 15% 30.26 in 10.0 mi Calm Calm - N/A   Clear
1:15 PM 64.4 °F 15.8 °F 15% 30.25 in 10.0 mi SW 6.9 mph 16.1 mph N/A   Clear
1:35 PM 64.4 °F 15.8 °F 15% 30.24 in 10.0 mi SSE 8.1 mph - N/A   Clear
1:55 PM 64.4 °F 14.0 °F 14% 30.23 in 10.0 mi Calm Calm - N/A   Clear
2:15 PM 66.2 °F 14.0 °F 13% 30.22 in 10.0 mi WNW 6.9 mph - N/A   Clear
2:35 PM 66.2 °F 14.0 °F 13% 30.21 in 10.0 mi SW 3.5 mph - N/A   Clear
2:55 PM 66.2 °F 14.0 °F 13% 30.20 in 10.0 mi NNE 6.9 mph - N/A   Clear
3:15 PM 68.0 °F 14.0 °F 12% 30.19 in 10.0 mi NNW 5.8 mph - N/A   Clear
3:35 PM 69.8 °F 15.8 °F 13% 30.18 in 10.0 mi West 6.9 mph - N/A   Clear
3:55 PM 68.0 °F 14.0 °F 12% 30.17 in 10.0 mi WSW 5.8 mph - N/A   Clear
4:15 PM 68.0 °F 14.0 °F 12% 30.16 in 10.0 mi Calm Calm - N/A   Clear
4:35 PM 69.8 °F 14.0 °F 12% 30.16 in 10.0 mi SSW 9.2 mph - N/A   Clear
4:55 PM 69.8 °F 14.0 °F 12% 30.15 in 10.0 mi NNW 6.9 mph - N/A   Clear
5:15 PM 69.8 °F 15.8 °F 13% 30.14 in 10.0 mi West 4.6 mph - N/A   Clear
5:35 PM 69.8 °F 15.8 °F 13% 30.14 in 10.0 mi West 5.8 mph - N/A   Clear
5:55 PM 71.6 °F 15.8 °F 12% 30.13 in 10.0 mi North 5.8 mph - N/A   Clear
6:15 PM 71.6 °F 15.8 °F 12% 30.13 in 10.0 mi North 4.6 mph - N/A   Clear
6:35 PM 71.6 °F 15.8 °F 12% 30.12 in 10.0 mi Calm Calm - N/A   Clear
6:55 PM 71.6 °F 15.8 °F 12% 30.11 in 10.0 mi Calm Calm - N/A   Clear
7:15 PM 71.6 °F 14.0 °F 11% 30.11 in 10.0 mi WNW 3.5 mph - N/A   Clear
7:35 PM 71.6 °F 15.8 °F 12% 30.11 in 10.0 mi ESE 3.5 mph - N/A   Clear
7:55 PM 69.8 °F 14.0 °F 12% 30.11 in 10.0 mi Calm Calm - N/A   Clear
8:15 PM 69.8 °F 12.2 °F 11% 30.11 in 10.0 mi Calm Calm - N/A   Clear
8:35 PM 66.2 °F 12.2 °F 12% 30.11 in 10.0 mi Calm Calm - N/A   Clear
8:55 PM 66.2 °F 10.4 °F 11% 30.11 in 10.0 mi Calm Calm - N/A   Clear
9:15 PM 62.6 °F 10.4 °F 13% 30.12 in 10.0 mi SSE 5.8 mph - N/A   Clear
9:35 PM 62.6 °F 10.4 °F 13% 30.12 in 10.0 mi ESE 4.6 mph - N/A   Clear
9:55 PM 62.6 °F 12.2 °F 14% 30.13 in 10.0 mi WNW 9.2 mph - N/A   Clear
10:15 PM 60.8 °F 12.2 °F 15% 30.13 in 10.0 mi SSW 5.8 mph - N/A   Clear
10:35 PM 57.2 °F 12.2 °F 17% 30.14 in 10.0 mi SE 4.6 mph - N/A   Clear
10:55 PM 55.4 °F 12.2 °F 18% 30.14 in 10.0 mi SE 4.6 mph - N/A   Clear
11:15 PM 55.4 °F 12.2 °F 18% 30.14 in 10.0 mi SSW 5.8 mph - N/A   Clear
11:35 PM 55.4 °F 12.2 °F 18% 30.14 in 10.0 mi SW 3.5 mph - N/A   Clear
11:55 PM 55.4 °F 12.2 °F 18% 30.13 in 10.0 mi Calm Calm - N/A   Clear